Location: Unspecified
(0.0000°N, 0.0000°E)
Time: 21:48:34
(UTC+01:00)

Vanguard 1 Rocket - Visible Passes

Search period start: 20 November 2014 00:00
Search period end: 30 November 2014 00:00
Orbit: 654 x 4226 km, 34.3° (Epoch: 19 November)

Date Brightness Start Highest point End Pass type
(mag) Time Alt. Az. Time Alt. Az. Time Alt. Az.
20 Nov 10.8 01:42:46 24° E 01:42:46 24° E 01:46:58 10° ESE visible
20 Nov 9.4 04:00:05 62° W 04:02:37 69° SW 04:13:27 10° SE visible
20 Nov 10.3 06:23:19 10° WSW 06:29:27 15° SW 06:34:05 10° S visible
20 Nov 11.0 18:44:41 10° WNW 18:55:18 23° NNW 19:11:07 10° NNE visible
20 Nov 11.3 21:19:35 10° NW 21:35:30 22° N 21:36:28 22° NNE visible
20 Nov 11.6 23:52:20 10° NW 23:53:46 12° NW 23:53:46 12° NW visible
21 Nov 9.7 02:53:09 66° ESE 02:53:09 66° ESE 03:03:02 10° SE visible
21 Nov 9.9 05:10:28 22° W 05:17:59 32° SW 05:26:28 10° SSE visible
21 Nov 11.3 20:05:04 10° NW 20:17:34 19° N 20:29:25 14° NNE visible
21 Nov 11.4 22:38:14 10° NNW 22:46:43 22° NNW 22:46:43 22° NNW visible
22 Nov 10.6 01:46:10 31° ESE 01:46:10 31° ESE 01:51:36 10° ESE visible
22 Nov 9.7 04:03:28 51° WSW 04:06:11 55° SW 04:17:13 10° SE visible
22 Nov 11.1 18:50:54 10° NW 19:00:52 19° N 19:14:51 10° NNE visible
22 Nov 11.2 21:24:27 10° NNW 21:39:41 23° N 21:39:41 23° N visible
22 Nov 11.4 23:55:40 10° NW 23:56:59 12° NW 23:56:59 12° NW visible
23 Nov 9.7 02:56:25 69° SSE 02:56:25 69° SSE 03:07:03 10° SE visible
23 Nov 10.3 05:13:43 17° WSW 05:21:44 24° SW 05:29:44 10° S visible
23 Nov 11.3 20:10:49 10° NNW 20:23:37 19° N 20:32:41 16° NNE visible
23 Nov 11.4 22:41:55 10° NNW 22:49:59 23° NNW 22:49:59 23° NNW visible
24 Nov 10.5 01:49:19 37° ESE 01:49:19 37° ESE 01:55:56 10° ESE visible
24 Nov 10.0 04:06:36 41° WSW 04:09:44 43° SW 04:20:48 10° SSE visible
24 Nov 11.2 18:57:13 10° NW 19:06:38 17° N 19:19:15 10° NE visible
24 Nov 11.2 21:28:44 10° NNW 21:43:02 26° N 21:43:02 26° N visible
24 Nov 11.3 23:58:56 10° NW 00:42:08 14° ESE 00:43:35 10° ESE visible
25 Nov 9.9 02:59:25 63° S 02:59:25 63° S 03:10:52 10° SE visible
25 Nov 10.5 05:16:42 11° WSW 05:25:42 18° SW 05:32:44 10° S visible
25 Nov 11.2 20:15:55 10° NNW 20:29:32 20° NNE 20:36:07 18° NNE visible
25 Nov 11.3 22:45:24 10° NW 22:53:26 25° NNW 22:53:26 25° NNW visible
26 Nov 10.4 01:52:10 44° SE 01:52:10 44° SE 02:00:01 10° SE visible
26 Nov 10.3 04:09:27 32° WSW 04:13:21 35° SW 04:24:16 10° SSE visible
26 Nov 11.2 19:03:14 10° NNW 19:12:32 16° N 19:24:35 10° NE visible
26 Nov 11.1 21:32:36 10° NNW 21:46:35 29° N 21:46:35 29° N visible
27 Nov 11.1 00:02:15 10° NW 00:44:51 20° ESE 00:48:02 10° ESE visible
27 Nov 10.1 03:02:07 54° SSW 03:02:07 54° SSW 03:14:32 10° SE visible
27 Nov 10.8 05:23:08 10° WSW 05:29:59 14° SW 05:35:19 10° S visible
27 Nov 11.1 20:20:22 10° NNW 20:35:10 23° NNE 20:39:49 22° NE visible
27 Nov 11.2 22:48:46 10° NW 22:57:09 27° NNW 22:57:09 27° NNW visible
28 Nov 10.3 01:54:42 49° SE 01:54:42 49° SE 02:03:54 10° SE visible
28 Nov 10.6 04:11:58 24° WSW 04:17:10 27° SW 04:27:37 10° SSE visible
28 Nov 11.2 19:08:35 10° NNW 19:18:22 16° NNE 19:30:59 10° NE visible
28 Nov 10.9 21:36:11 10° NNW 21:50:28 34° N 21:50:28 34° N visible
29 Nov 11.0 00:05:39 10° NW 00:47:12 27° ESE 00:52:13 10° ESE visible
29 Nov 10.3 03:04:27 45° SW 03:04:27 45° SW 03:18:05 10° SSE visible
29 Nov 11.0 05:33:02 10° SW 05:34:37 10° SSW 05:36:06 10° SSW visible
29 Nov 11.0 20:24:21 10° NNW 20:40:23 26° NNE 20:43:53 26° NE visible
29 Nov 11.1 22:52:08 10° NW 23:01:14 31° NNW 23:01:14 31° NNW visible
